Regional Weather Roundup
Issued by NWS

Home | Current Version | Previous Version | Text Only | Print | Product List | Glossary On
Versions: 1 2 3 4 5 6 7 8 9 10 11 12 13 14 15 16 17 18 19 20 21 22 23 24 25 26 27 28 29 30 31 32 33 34 35 36 37 38 39 40 41 42 43 44 45 46 47 48 49 50
394
ASUS43 KFSD 300302
RWRSD

WEATHER ROUNDUP FOR SOUTH DAKOTA
NATIONAL WEATHER SERVICE SIOUX FALLS SD
1000 PM CDT FRI APR 29 2016

NOTE: "FAIR" INDICATES FEW OR NO CLOUDS BELOW 12,000 FEET WITH NO
SIGNIFICANT WEATHER AND/OR OBSTRUCTIONS TO VISIBILITY.


SDZ001>005-009-010-012>017-300400-
NORTHWEST AND NORTH CENTRAL SOUTH DAKOTA

CITY           SKY/WX    TMP DP  RH WIND       PRES   REMARKS
BUFFALO          N/A     42  34  73 SE9       30.01R
FAITH            N/A     45  35  68 SE6       30.06S
MOBRIDGE       CLOUDY    51  38  60 E8        30.06R
$$

SDZ012>016-024>037-041>051-057-063-072>074-300400-
SOUTHWEST AND SOUTH CENTRAL SOUTH DAKOTA

CITY           SKY/WX    TMP DP  RH WIND       PRES   REMARKS
RAPID CTY ARPT CLOUDY    41  36  82 NE7       30.05R
PIERRE         MOCLDY    42  37  82 E6        30.07R
CUSTER         FOG       33  30  88 NE16      29.98S VSB 1/2 WCI  23
ELLSWORTH AFB  CLOUDY    42  38  85 NE5       30.04
PHILIP         MOCLDY    42  38  85 NE8       30.04S
PINE RIDGE     CLOUDY    38  34  85 NE10      29.98F
WINNER         CLOUDY    44  38  79 E10       30.04F
$$

SDZ004>011-016>023-039-040-300400-
NORTHEAST SOUTH DAKOTA

CITY           SKY/WX    TMP DP  RH WIND       PRES   REMARKS
ABERDEEN       CLOUDY    48  39  71 E3        30.10R
WATERTOWN      PTCLDY    42  37  82 NE6       30.07S
BROOKINGS      PTCLDY    46  39  76 E8        30.06S
SISSETON         N/A     47  38  71 CALM      30.09S
$$

SDZ017-020-022-023-036>040-048>070-300400-
SOUTHEAST SOUTH DAKOTA

CITY           SKY/WX    TMP DP  RH WIND       PRES   REMARKS
SIOUX FALLS    CLOUDY    44  39  82 E7        30.05R
HURON          CLOUDY    45  41  86 CALM      30.07R
MITCHELL       CLOUDY    48  41  76 NE8       30.07R
YANKTON        CLOUDY    45  39  81 E7        30.03S
$$

ABBREVIATIONS USED IN REMARKS
   TC - TEMPERATURE IN CELSIUS
  WCI - WIND CHILL INDEX
   HX - HEAT INDEX
  VSB - VISIBILITY





USA.gov is the U.S. government's official web portal to all federal, state and local government web resources and services.